This demonstration page uses our WeatherBlox Daily Observations layout. Learn more.

Hourly Observations for December 1, 2018

Temp ( °F °C ) Dew Point ( °F °C ) Humidity (%) Winds ( mph kmh ) Pressure ( in mb ) Visibility ( mi km ) Precip ( " mm )
12:15 am 00:15 Cloudy with Light Rain 36 2 36 2 100 100 NNE 13 20 29.53 1000 4 6.43736 0.02 0.508
12:35 am 00:35 Cloudy with Rain 36 2 36 2 100 100 NNE 8 13 29.53 1000 7 11.26538 0.02 0.508
12:55 am 00:55 Cloudy with Rain 36 2 36 2 100 100 NNE 10 17 29.53 1000 5 8.0467 0.03 0.762
1:15 am 01:15 Cloudy with Rain 36 2 36 2 100 100 NNE 10 17 29.5 999 4 6.43736 0.03 0.762
1:35 am 01:35 Cloudy with Light Rain 36 2 36 2 100 100 NNE 12 19 29.5 999 5 8.0467 0.06 1.524
1:55 am 01:55 Cloudy with Rain 36 2.2 36 2.2 100 100 N 9 15 29.47 998 5 8.0467 0.07 1.778
2:15 am 02:15 Cloudy with Rain 36 2.2 36 2.2 100 100 NNE 12 19 29.47 998 3 4.82802 0.04 1.016
2:35 am 02:35 Cloudy with Light Rain 36 2.2 36 2.2 100 100 N 7 11 29.47 998 7 11.26538 0.07 1.778
2:55 am 02:55 Cloudy with Light Rain 36 2.2 36 2.2 100 100 NNE 9 15 29.47 998 7 11.26538 0.08 2.032
3:15 am 03:15 Cloudy with Light Rain 36 2.1 36 2.1 100 100 NNE 12 19 29.47 998 5 8.0467 0.01 0.254
3:35 am 03:35 Cloudy with Light Rain 36 2 36 2 100 100 NNE 12 19 29.47 998 4 6.43736 0.03 0.762
3:55 am 03:55 Cloudy with Light Rain 35 1.7 35 1.7 100 100 NNE 15 24 29.44 997 5 8.0467 0.04 1.016
4:15 am 04:15 Cloudy with Light Rain 34 1.2 34 1.2 100 100 N 12 19 29.44 997 4 6.43736 0.01 0.254
4:35 am 04:35 Cloudy with Light Rain 33 0.7 33 0.7 100 100 N 13 20 29.44 997 4 6.43736 0.02 0.508
4:55 am 04:55 Cloudy with Light Snow 33 0.5 33 0.5 100 100 N 12 19 29.41 996 3 4.82802 0.03 0.762
5:15 am 05:15 Cloudy with Light Snow 33 0.3 33 0.3 100 100 N 12 19 29.41 996 2.5 4.02335 0 0
5:35 am 05:35 Cloudy with Light Snow 33 0.3 33 0.3 100 100 N 14 22 29.41 996 3 4.82802 0.02 0.508
5:55 am 05:55 Cloudy with Light Snow 33 0.3 33 0.3 100 100 N 14 22 29.38 995 2.5 4.02335 0.02 0.508
6:15 am 06:15 Cloudy with Light Snow 33 0.3 33 0.3 100 100 N 14 22 29.38 995 2.5 4.02335 0 0
6:35 am 06:35 Cloudy with Light Snow 33 0.4 33 0.4 100 100 N 16 26 29.38 995 2.5 4.02335 0.01 0.254
6:55 am 06:55 Cloudy with Light Snow 33 0.3 33 0.3 100 100 N 15 24 29.35 994 2 3.21868 0.03 0.762
7:15 am 07:15 Cloudy with Light Snow 33 0.5 33 0.5 100 100 N 15 24 29.35 994 2 3.21868 0.01 0.254
7:35 am 07:35 Cloudy with Light Snow 33 0.3 33 0.3 100 100 N 15 24 29.35 994 1.5 2.41401 0.02 0.508
7:55 am 07:55 Cloudy with Light Snow 32 0.2 32 0.2 100 100 N 15 24 29.35 994 1.5 2.41401 0.03 0.762
8:15 am 08:15 Cloudy with Light Snow 33 0.3 33 0.3 100 100 N 14 22 29.35 994 2 3.21868 0.02 0.508
8:35 am 08:35 Cloudy with Light Snow 33 0.4 33 0.4 100 100 N 16 26 29.35 994 1.75 2.816345 0.05 1.27
8:55 am 08:55 Cloudy with Light Snow 33 0.4 33 0.4 100 100 N 17 28 29.32 993 0.75 1.207005 0.06 1.524
9:15 am 09:15 Cloudy with Light Snow 33 0.5 33 0.5 100 100 N 18 30 29.32 993 1.25 2.011675 0.02 0.508
9:35 am 09:35 Cloudy with Light Snow 33 0.5 33 0.5 100 100 N 17 28 29.32 993 2.5 4.02335 0.03 0.762
9:55 am 09:55 Windy with Snow Likely 33 0.5 33 0.5 100 100 N 20 31 29.32 993 1.75 2.816345 0.03 0.762
10:15 am 10:15 Windy with Snow Likely 33 0.6 33 0.6 100 100 N 20 31 29.35 994 1.5 2.41401 0 0
10:35 am 10:35 Windy with Snow Likely 33 0.5 33 0.5 100 100 NNE 26 43 29.35 994 1.25 2.011675 0 0
10:55 am 10:55 Windy with Snow Likely 33 0.5 33 0.5 100 100 N 22 35 29.35 994 1.75 2.816345 0 0
11:15 am 11:15 Cloudy with Light Snow 33 0.5 33 0.5 100 100 N 18 30 29.35 994 1.75 2.816345 0 0
11:35 am 11:35 Windy with Snow Likely 33 0.5 33 0.5 100 100 N 22 35 29.35 994 1.5 2.41401 0 0
11:55 am 11:55 Windy with Snow Likely 33 0.3 33 0.3 100 100 N 23 37 29.35 994 1 1.60934 0 0
12:15 pm 12:15 Windy with Snow Likely 33 0.3 33 0.3 100 100 N 22 35 29.35 994 1.5 2.41401 0 0
12:35 pm 12:35 Windy with Snow Likely 33 0.3 33 0.3 100 100 N 21 33 29.35 994 1.5 2.41401 0 0
12:55 pm 12:55 Windy with Snow Likely 33 0.3 33 0.3 100 100 N 21 33 29.35 994 1.25 2.011675 0 0
1:15 pm 13:15 Windy with Snow Likely 33 0.3 33 0.3 100 100 N 23 37 29.38 995 1.75 2.816345 0 0
1:35 pm 13:35 Windy with Snow Likely 33 0.3 33 0.3 100 100 N 23 37 29.35 994 1.5 2.41401 0 0
1:55 pm 13:55 Windy with Snow Likely 33 0.5 33 0.5 100 100 N 24 39 29.38 995 1.25 2.011675 0 0
2:15 pm 14:15 Windy with Snow Likely 32 0.2 32 0.2 100 100 N 22 35 29.38 995 1 1.60934 0 0
2:35 pm 14:35 Windy with Snow Likely 32 0.2 32 0.2 100 100 N 20 31 29.38 995 1.5 2.41401 0 0
2:55 pm 14:55 Windy with Snow Likely 32 0.1 32 0.1 100 100 N 25 41 29.41 996 1.25 2.011675 0 0
3:15 pm 15:15 Windy with Snow Likely 32 0.1 32 0.1 100 100 N 21 33 29.41 996 1.25 2.011675 0 0
3:35 pm 15:35 Windy with Snow Likely 32 0.1 32 0.1 100 100 N 20 31 29.41 996 1.5 2.41401 0 0
3:55 pm 15:55 Cloudy with Mist and Fog 32 0 32 0 100 100 N 18 30 29.47 998 4 6.43736 0 0
4:15 pm 16:15 Cloudy with Mist and Fog 32 0 32 -0.2 99 99 N 21 33 29.47 998 4 6.43736 0 0
4:35 pm 16:35 Cloudy with Mist and Fog 32 -0.2 31 -0.5 98 98 N 18 30 29.5 999 2 3.21868 0 0
4:55 pm 16:55 Cloudy with Mist and Fog 32 -0.2 31 -0.5 98 98 N 23 37 29.5 999 3 4.82802 0 0
5:15 pm 17:15 Cloudy 32 -0.1 31 -0.7 96 96 N 23 37 29.5 999 7 11.26538 0 0
5:35 pm 17:35 Cloudy 32 -0.1 31 -0.8 95 95 N 21 33 29.5 999 7 11.26538 0 0
5:55 pm 17:55 Cloudy with Mist and Fog 31 -0.3 31 -0.7 97 97 N 22 35 29.5 999 4 6.43736 0 0
6:15 pm 18:15 Cloudy with Mist and Fog 31 -0.5 31 -0.6 99 99 NNW 23 37 29.53 1000 4 6.43736 0 0
6:35 pm 18:35 Cloudy with Mist and Fog 31 -0.5 31 -0.5 100 100 N 20 31 29.53 1000 5 8.0467 0 0
6:55 pm 18:55 Cloudy with Mist and Fog 31 -0.3 31 -0.5 99 99 NNW 21 33 29.53 1000 5 8.0467 0 0
7:15 pm 19:15 Cloudy 32 -0.2 31 -0.5 98 98 N 22 35 29.53 1000 7 11.26538 0 0
7:35 pm 19:35 Windy with Snow Likely 32 -0.2 31 -0.5 98 98 NNW 24 39 29.53 1000 2.5 4.02335 0 0
7:55 pm 19:55 Windy with Snow Likely 32 -0.1 31 -0.3 99 99 N 20 31 29.56 1001 7 11.26538 0 0
8:15 pm 20:15 Windy with Snow Likely 32 0 31 -0.5 96 96 N 22 35 29.56 1001 5 8.0467 0 0
8:35 pm 20:35 Windy with Snow Likely 32 0 31 -0.5 96 96 N 23 37 29.56 1001 7 11.26538 0 0
8:55 pm 20:55 Windy with Snow Likely 32 0 31 -0.5 96 96 N 21 33 29.56 1001 3 4.82802 0 0
9:15 pm 21:15 Cloudy with Light Snow 32 -0.1 31 -0.5 97 97 NNW 18 30 29.59 1002 3 4.82802 0 0
9:35 pm 21:35 Windy with Snow Likely 32 -0.2 31 -0.5 98 98 NNW 21 33 29.59 1002 4 6.43736 0 0
9:55 pm 21:55 Cloudy with Light Snow 32 -0.2 31 -0.5 98 98 NNW 18 30 29.59 1002 5 8.0467 0 0
10:15 pm 22:15 Windy with Snow Likely 31 -0.4 31 -0.7 98 98 N 22 35 29.59 1002 4 6.43736 0 0
10:35 pm 22:35 Windy with Snow Likely 31 -0.5 30 -0.9 97 97 N 22 35 29.62 1003 3 4.82802 0 0
10:55 pm 22:55 Cloudy with Light Snow 31 -0.5 31 -0.8 98 98 NNW 18 30 29.62 1003 3 4.82802 0 0
11:15 pm 23:15 Windy with Snow Likely 31 -0.5 30 -1 96 96 NNW 24 39 29.62 1003 5 8.0467 0 0
11:35 pm 23:35 Windy with Snow Likely 31 -0.6 30 -1 97 97 N 23 37 29.65 1004 2.5 4.02335 0 0
11:55 pm 23:55 Cloudy with Light Snow 31 -0.8 30 -1.3 96 96 NNW 16 26 29.65 1004 2 3.21868 0 0

Powered by AerisWeather